Location: Chevoux
(46.3801°N, 4.9476°E)
Time: 11:29:26
(UTC+00:00)

ISS - Pass Details

Date: 28 January 2021
Orbit: 417 x 422 km, 51.6° (Epoch: 07 March)

Event Time Altitude Azimuth Distance (km) Brightness Sun altitude
Rises 17:46:53 0° 283° (WNW) 2,373 1.3 -11.9°
Reaches altitude 10° 17:49:08 10° 293° (WNW) 1,510 -0.1 -12.2°
Maximum altitude 17:52:13 32° 359° (N) 755 -2.6 -12.8°
Enters shadow 17:53:54 20° 48° (NE) 1,036 -2.3 -13.0°
